| time (UTC) | temp F | wind direction | speed MPH | gust MPH | rain 1hr in | rain 24hr in | rain mn in | humidity % | barometer mb |
| 20260503032509 | 63 | 202 | 4.0 | 4.0 | 0.00 | 0.00 | 0.00 | 68 | 1020.9 |
| 20260503032006 | 63 | 202 | 4.0 | 5.0 | 0.00 | 0.00 | 0.00 | 67 | 1020.9 |
| 20260503031503 | 63 | 202 | 4.0 | 5.0 | 0.00 | 0.00 | 0.00 | 67 | 1020.9 |
| 20260503031006 | 63 | 202 | 4.0 | 5.0 | 0.00 | 0.00 | 0.00 | 66 | 1020.9 |
| 20260503030502 | 63 | 202 | 4.0 | 5.0 | 0.00 | 0.00 | 0.00 | 67 | 1020.5 |
| 20260503030026 | 63 | 202 | 4.0 | 4.0 | 0.00 | 0.00 | 0.00 | 68 | 1020.5 |
| 20260503025503 | 64 | 202 | 4.0 | 5.0 | 0.00 | 0.00 | 0.00 | 69 | 1020.5 |
| 20260503025006 | 64 | 202 | 4.0 | 5.0 | 0.00 | 0.00 | 0.00 | 67 | 1020.5 |
| 20260503024503 | 64 | 202 | 3.0 | 3.0 | 0.00 | 0.00 | 0.00 | 67 | 1020.5 |
| 20260503024006 | 64 | 202 | 3.0 | 4.0 | 0.00 | 0.00 | 0.00 | 66 | 1020.5 |
| 20260503023503 | 64 | 202 | 4.0 | 4.0 | 0.00 | 0.00 | 0.00 | 64 | 1019.9 |
| 20260503023006 | 65 | 202 | 3.0 | 3.0 | 0.00 | 0.00 | 0.00 | 63 | 1019.9 |
| 20260503022503 | 65 | 202 | 4.0 | 4.0 | 0.00 | 0.00 | 0.00 | 64 | 1019.9 |
| 20260503022006 | 65 | 202 | 4.0 | 4.0 | 0.00 | 0.00 | 0.00 | 62 | 1019.9 |
| 20260503021509 | 65 | 202 | 5.0 | 5.0 | 0.00 | 0.00 | 0.00 | 62 | 1019.9 |
| 20260503021006 | 65 | 202 | 4.0 | 5.0 | 0.00 | 0.00 | 0.00 | 63 | 1019.9 |
| 20260503020508 | 66 | 202 | 4.0 | 5.0 | 0.00 | 0.00 | 0.00 | 65 | 1019.9 |
| 20260503020005 | 66 | 202 | 4.0 | 4.0 | 0.00 | 0.00 | 0.00 | 62 | 1019.9 |
| 20260503015503 | 66 | 202 | 4.0 | 4.0 | 0.00 | 0.00 | 0.00 | 61 | 1019.5 |
| 20260503015002 | 67 | 202 | 3.0 | 4.0 | 0.00 | 0.00 | 0.00 | 58 | 1019.5 |
| 20260503014506 | 67 | 202 | 3.0 | 3.0 | 0.00 | 0.00 | 0.00 | 57 | 1019.2 |
| 20260503014006 | 68 | 202 | 3.0 | 4.0 | 0.00 | 0.00 | 0.00 | 58 | 1019.2 |
| 20260503013503 | 68 | 202 | 4.0 | 5.0 | 0.00 | 0.00 | 0.00 | 56 | 1018.8 |
| 20260503013006 | 69 | 202 | 4.0 | 4.0 | 0.00 | 0.00 | 0.00 | 54 | 1018.8 |
| 20260503012503 | 69 | 202 | 4.0 | 4.0 | 0.00 | 0.00 | 0.00 | 52 | 1018.5 |
| 20260503012006 | 70 | 202 | 4.0 | 5.0 | 0.00 | 0.00 | 0.00 | 51 | 1018.5 |
| 20260503011504 | 70 | 202 | 5.0 | 5.0 | 0.00 | 0.00 | 0.00 | 50 | 1018.5 |
| 20260503011007 | 71 | 202 | 4.0 | 5.0 | 0.00 | 0.00 | 0.00 | 48 | 1018.5 |
| 20260503010504 | 71 | 202 | 5.0 | 5.0 | 0.00 | 0.00 | 0.00 | 47 | 1017.8 |
| 20260503010006 | 72 | 202 | 5.0 | 6.0 | 0.00 | 0.00 | 0.00 | 46 | 1017.8 |
| 20260503005535 | 73 | 202 | 4.0 | 5.0 | 0.00 | 0.00 | 0.00 | 46 | 1017.8 |
| 20260503005006 | 73 | 202 | 4.0 | 5.0 | 0.00 | 0.00 | 0.00 | 45 | 1017.8 |
| 20260503004504 | 73 | 202 | 4.0 | 5.0 | 0.00 | 0.00 | 0.00 | 45 | 1017.8 |
| 20260503004007 | 74 | 202 | 4.0 | 4.0 | 0.00 | 0.00 | 0.00 | 45 | 1017.8 |
| 20260503003504 | 74 | 202 | 4.0 | 4.0 | 0.00 | 0.00 | 0.00 | 45 | 1017.5 |
| 20260503003007 | 74 | 202 | 4.0 | 4.0 | 0.00 | 0.00 | 0.00 | 45 | 1017.5 |
| 20260503002505 | 74 | 202 | 5.0 | 5.0 | 0.00 | 0.00 | 0.00 | 44 | 1017.1 |
| 20260503002008 | 74 | 202 | 5.0 | 7.0 | 0.00 | 0.00 | 0.00 | 43 | 1017.1 |
| 20260503001505 | 74 | 202 | 5.0 | 6.0 | 0.00 | 0.00 | 0.00 | 41 | 1017.1 |
| 20260503001008 | 74 | 225 | 6.0 | 8.0 | 0.00 | 0.00 | 0.00 | 39 | 1017.1 |
| 20260503000505 | 74 | 225 | 5.0 | 6.0 | 0.00 | 0.00 | 0.00 | 40 | 1017.1 |
| 20260503000008 | 74 | 225 | 7.0 | 8.0 | 0.00 | 0.00 | 0.00 | 39 | 1017.1 |
| 20260502235505 | 74 | 247 | 8.0 | 9.0 | 0.00 | 0.00 | 0.00 | 38 | 1017.1 |
| 20260502235008 | 74 | 225 | 10.0 | 12.0 | 0.00 | 0.00 | 0.00 | 39 | 1017.1 |
| 20260502234505 | 73 | 247 | 11.0 | 12.0 | 0.00 | 0.00 | 0.00 | 37 | 1016.8 |
| 20260502234008 | 74 | 270 | 6.0 | 8.0 | 0.00 | 0.00 | 0.00 | 39 | 1016.8 |
| 20260502233504 | 74 | 247 | 10.0 | 12.0 | 0.00 | 0.00 | 0.00 | 39 | 1016.8 |
| 20260502233008 | 75 | 247 | 6.0 | 9.0 | 0.00 | 0.00 | 0.00 | 39 | 1016.8 |
| 20260502232505 | 75 | 270 | 5.0 | 7.0 | 0.00 | 0.00 | 0.00 | 38 | 1016.8 |
| 20260502232010 | 74 | 315 | 6.0 | 8.0 | 0.00 | 0.00 | 0.00 | 37 | 1016.8 |
| 20260502231505 | 74 | 270 | 6.0 | 7.0 | 0.00 | 0.00 | 0.00 | 37 | 1016.8 |
| 20260502231008 | 74 | 270 | 11.0 | 12.0 | 0.00 | 0.00 | 0.00 | 37 | 1016.8 |
| 20260502230504 | 74 | 247 | 10.0 | 11.0 | 0.00 | 0.00 | 0.00 | 38 | 1017.1 |
| 20260502230008 | 76 | 247 | 5.0 | 7.0 | 0.00 | 0.00 | 0.00 | 37 | 1017.1 |
| 20260502225504 | 76 | 202 | 6.0 | 7.0 | 0.00 | 0.00 | 0.00 | 39 | 1017.1 |
| 20260502225033 | 75 | 202 | 8.0 | 9.0 | 0.00 | 0.00 | 0.00 | 38 | 1017.1 |
| 20260502224503 | 75 | 225 | 4.0 | 5.0 | 0.00 | 0.00 | 0.00 | 41 | 1017.5 |
| 20260502224007 | 74 | 270 | 4.0 | 5.0 | 0.00 | 0.00 | 0.00 | 41 | 1017.5 |
| 20260502223506 | 73 | 270 | 6.0 | 8.0 | 0.00 | 0.00 | 0.00 | 41 | 1017.1 |
| 20260502223003 | 73 | 225 | 5.0 | 7.0 | 0.00 | 0.00 | 0.00 | 42 | 1017.1 |
| 20260502222506 | 73 | 270 | 7.0 | 12.0 | 0.00 | 0.00 | 0.00 | 41 | 1017.1 |
| 20260502222003 | 74 | 292 | 7.0 | 8.0 | 0.00 | 0.00 | 0.00 | 39 | 1017.1 |
| 20260502221506 | 74 | 270 | 9.0 | 13.0 | 0.00 | 0.00 | 0.00 | 37 | 1017.1 |
| 20260502221006 | 75 | 157 | 4.0 | 6.0 | 0.00 | 0.00 | 0.00 | 37 | 1017.1 |
| 20260502220503 | 74 | 247 | 5.0 | 6.0 | 0.00 | 0.00 | 0.00 | 41 | 1017.1 |
| 20260502220005 | 74 | 247 | 6.0 | 8.0 | 0.00 | 0.00 | 0.00 | 39 | 1017.1 |
| 20260502215503 | 74 | 247 | 9.0 | 11.0 | 0.00 | 0.00 | 0.00 | 40 | 1017.1 |
| 20260502215006 | 74 | 292 | 8.0 | 13.0 | 0.00 | 0.00 | 0.00 | 37 | 1017.1 |
| 20260502214509 | 75 | 202 | 10.0 | 11.0 | 0.00 | 0.00 | 0.00 | 39 | 1017.5 |
| 20260502214006 | 75 | 202 | 9.0 | 11.0 | 0.00 | 0.00 | 0.00 | 41 | 1017.5 |
| 20260502213503 | 74 | 270 | 8.0 | 10.0 | 0.00 | 0.00 | 0.00 | 39 | 1017.8 |
| 20260502213006 | 74 | 225 | 10.0 | 12.0 | 0.00 | 0.00 | 0.00 | 38 | 1017.8 |
| 20260502212503 | 74 | 202 | 11.0 | 14.0 | 0.00 | 0.00 | 0.00 | 39 | 1018.2 |
| 20260502212006 | 74 | 270 | 4.0 | 5.0 | 0.00 | 0.00 | 0.00 | 40 | 1018.2 |
| 20260502211503 | 73 | 225 | 6.0 | 9.0 | 0.00 | 0.00 | 0.00 | 40 | 1017.8 |
| 20260502211006 | 73 | 270 | 4.0 | 6.0 | 0.00 | 0.00 | 0.00 | 39 | 1017.8 |
| 20260502210503 | 74 | 225 | 11.0 | 13.0 | 0.00 | 0.00 | 0.00 | 37 | 1017.8 |
| 20260502210006 | 76 | 202 | 3.0 | 5.0 | 0.00 | 0.00 | 0.00 | 37 | 1017.8 |
| 20260502205507 | 74 | 315 | 5.0 | 6.0 | 0.00 | 0.00 | 0.00 | 38 | 1018.2 |
| 20260502205004 | 73 | 270 | 5.0 | 6.0 | 0.00 | 0.00 | 0.00 | 42 | 1018.2 |
| 20260502204533 | 73 | 292 | 7.0 | 10.0 | 0.00 | 0.00 | 0.00 | 39 | 1017.8 |
| 20260502204004 | 74 | 292 | 5.0 | 7.0 | 0.00 | 0.00 | 0.00 | 39 | 1017.8 |
| 20260502203507 | 75 | 225 | 9.0 | 12.0 | 0.00 | 0.00 | 0.00 | 39 | 1018.5 |
| 20260502203004 | 76 | 315 | 0.0 | 2.0 | 0.00 | 0.00 | 0.00 | 39 | 1018.5 |
| 20260502202507 | 73 | 292 | 1.0 | 4.0 | 0.00 | 0.00 | 0.00 | 40 | 1018.5 |
| 20260502202004 | 73 | 292 | 10.0 | 13.0 | 0.00 | 0.00 | 0.00 | 40 | 1018.5 |
| 20260502201507 | 74 | 315 | 9.0 | 11.0 | 0.00 | 0.00 | 0.00 | 40 | 1018.5 |
| 20260502201004 | 73 | 337 | 7.0 | 10.0 | 0.00 | 0.00 | 0.00 | 41 | 1018.5 |
| 20260502200507 | 73 | 337 | 7.0 | 8.0 | 0.00 | 0.00 | 0.00 | 39 | 1018.5 |
| 20260502200004 | 73 | 315 | 6.0 | 7.0 | 0.00 | 0.00 | 0.00 | 41 | 1018.5 |
| 20260502195507 | 73 | 315 | 6.0 | 8.0 | 0.00 | 0.00 | 0.00 | 40 | 1018.5 |
| 20260502195005 | 74 | 247 | 4.0 | 6.0 | 0.00 | 0.00 | 0.00 | 39 | 1018.5 |
| 20260502194504 | 73 | 45 | 9.0 | 11.0 | 0.00 | 0.00 | 0.00 | 38 | 1018.8 |
| 20260502194007 | 74 | 360 | 5.0 | 7.0 | 0.00 | 0.00 | 0.00 | 40 | 1018.8 |
| 20260502193505 | 73 | 202 | 2.0 | 3.0 | 0.00 | 0.00 | 0.00 | 38 | 1018.8 |
| 20260502193008 | 73 | 292 | 9.0 | 12.0 | 0.00 | 0.00 | 0.00 | 39 | 1018.8 |
| 20260502192505 | 74 | 292 | 4.0 | 6.0 | 0.00 | 0.00 | 0.00 | 37 | 1019.2 |
| 20260502192008 | 74 | 22 | 3.0 | 4.0 | 0.00 | 0.00 | 0.00 | 39 | 1019.2 |
| 20260502191504 | 73 | 22 | 3.0 | 5.0 | 0.00 | 0.00 | 0.00 | 39 | 1019.5 |
| 20260502191008 | 73 | 45 | 1.0 | 3.0 | 0.00 | 0.00 | 0.00 | 39 | 1019.5 |
| 20260502190505 | 73 | 360 | 5.0 | 7.0 | 0.00 | 0.00 | 0.00 | 37 | 1019.9 |
| 20260502190008 | 72 | 315 | 10.0 | 12.0 | 0.00 | 0.00 | 0.00 | 38 | 1019.9 |
| 20260502185507 | 72 | 247 | 7.0 | 8.0 | 0.00 | 0.00 | 0.00 | 39 | 1019.9 |
| 20260502185004 | 71 | 292 | 10.0 | 13.0 | 0.00 | 0.00 | 0.00 | 39 | 1019.9 |
| 20260502184506 | 72 | 315 | 6.0 | 8.0 | 0.00 | 0.00 | 0.00 | 39 | 1020.2 |
| 20260502184029 | 72 | 337 | 5.0 | 10.0 | 0.00 | 0.00 | 0.00 | 39 | 1020.2 |
| 20260502183506 | 72 | 270 | 1.0 | 4.0 | 0.00 | 0.00 | 0.00 | 37 | 1020.2 |
| 20260502183003 | 71 | 315 | 8.0 | 10.0 | 0.00 | 0.00 | 0.00 | 37 | 1020.2 |
| 20260502182506 | 72 | 337 | 8.0 | 10.0 | 0.00 | 0.00 | 0.00 | 38 | 1020.5 |
| 20260502182003 | 71 | 292 | 9.0 | 10.0 | 0.00 | 0.00 | 0.00 | 37 | 1020.5 |
| 20260502181506 | 72 | 247 | 4.0 | 6.0 | 0.00 | 0.00 | 0.00 | 37 | 1020.5 |
| 20260502181003 | 72 | 270 | 6.0 | 8.0 | 0.00 | 0.00 | 0.00 | 40 | 1020.5 |
| 20260502180505 | 72 | 315 | 8.0 | 12.0 | 0.00 | 0.00 | 0.00 | 34 | 1020.5 |
| 20260502170505 | 70 | 225 | 4.0 | 6.0 | 0.00 | 0.00 | 0.00 | 37 | 1021.2 |
| 20260502164006 | 70 | 360 | 2.0 | 3.0 | 0.00 | 0.00 | 0.00 | 34 | 1021.2 |
| 20260502163503 | 69 | 337 | 6.0 | 8.0 | 0.00 | 0.00 | 0.00 | 34 | 1021.2 |
| 20260502163006 | 69 | 315 | 3.0 | 4.0 | 0.00 | 0.00 | 0.00 | 34 | 1021.2 |
| 20260502162503 | 69 | 315 | 6.0 | 8.0 | 0.00 | 0.00 | 0.00 | 37 | 1020.9 |
| 20260502162006 | 68 | 270 | 4.0 | 5.0 | 0.00 | 0.00 | 0.00 | 39 | 1020.9 |
| 20260502161509 | 70 | 247 | 6.0 | 7.0 | 0.00 | 0.00 | 0.00 | 39 | 1021.2 |
| 20260502161006 | 69 | 292 | 0.0 | 0.0 | 0.00 | 0.00 | 0.00 | 40 | 1021.2 |
| 20260502160511 | 69 | 292 | 4.0 | 5.0 | 0.00 | 0.00 | 0.00 | 41 | 1020.9 |
| 20260502152007 | 67 | 270 | 3.0 | 5.0 | 0.00 | 0.00 | 0.00 | 47 | 1020.9 |
| 20260502151504 | 68 | 292 | 1.0 | 2.0 | 0.00 | 0.00 | 0.00 | 51 | 1021.2 |
| 20260502151005 | 67 | 270 | 3.0 | 4.0 | 0.00 | 0.00 | 0.00 | 52 | 1021.2 |
| 20260502150508 | 66 | 270 | 4.0 | 6.0 | 0.00 | 0.00 | 0.00 | 53 | 1021.2 |
| 20260502130505 | 53 | 292 | 4.0 | 5.0 | 0.00 | 0.00 | 0.00 | 100 | 1024.6 |
| 20260502123507 | 49 | 315 | 3.0 | 4.0 | 0.00 | 0.00 | 0.00 | 100 | 1024.6 |
| 20260502123004 | 49 | 315 | 5.0 | 5.0 | 0.00 | 0.00 | 0.00 | 100 | 1024.6 |
| 20260502122533 | 49 | 315 | 5.0 | 6.0 | 0.00 | 0.00 | 0.00 | 100 | 1024.6 |
| 20260502122004 | 49 | 315 | 5.0 | 6.0 | 0.00 | 0.00 | 0.00 | 100 | 1024.6 |
| 20260502121507 | 49 | 315 | 5.0 | 7.0 | 0.00 | 0.00 | 0.00 | 100 | 1024.6 |
| 20260502121004 | 48 | 315 | 5.0 | 6.0 | 0.00 | 0.00 | 0.00 | 100 | 1024.6 |
| 20260502120507 | 48 | 315 | 5.0 | 5.0 | 0.00 | 0.00 | 0.00 | 100 | 1024.6 |
| 20260502115507 | 48 | 315 | 3.0 | 5.0 | 0.00 | 0.00 | 0.00 | 100 | 1024.6 |
| 20260502115004 | 48 | 315 | 3.0 | 4.0 | 0.00 | 0.00 | 0.00 | 100 | 1024.6 |
| 20260502114507 | 48 | 315 | 4.0 | 5.0 | 0.00 | 0.00 | 0.00 | 100 | 1024.6 |
| 20260502114004 | 48 | 315 | 4.0 | 5.0 | 0.00 | 0.00 | 0.00 | 100 | 1024.6 |
| 20260502113507 | 48 | 315 | 4.0 | 5.0 | 0.00 | 0.00 | 0.00 | 100 | 1024.3 |
| 20260502113007 | 48 | 315 | 3.0 | 3.0 | 0.00 | 0.00 | 0.00 | 100 | 1024.3 |
| 20260502112504 | 48 | 315 | 3.0 | 4.0 | 0.00 | 0.00 | 0.00 | 100 | 1024.3 |
| 20260502112007 | 48 | 315 | 6.0 | 7.0 | 0.00 | 0.00 | 0.00 | 100 | 1024.3 |
| 20260502111504 | 48 | 315 | 6.0 | 7.0 | 0.00 | 0.00 | 0.00 | 100 | 1024.3 |
| 20260502111006 | 49 | 315 | 6.0 | 7.0 | 0.00 | 0.00 | 0.00 | 100 | 1024.3 |
| 20260502110503 | 49 | 315 | 5.0 | 7.0 | 0.00 | 0.00 | 0.00 | 100 | 1023.9 |
| 20260502110006 | 49 | 292 | 4.0 | 6.0 | 0.00 | 0.00 | 0.00 | 100 | 1023.9 |
| 20260502105503 | 49 | 292 | 5.0 | 7.0 | 0.00 | 0.00 | 0.00 | 100 | 1023.9 |
| 20260502105006 | 49 | 292 | 4.0 | 5.0 | 0.00 | 0.00 | 0.00 | 100 | 1023.9 |
| 20260502104503 | 49 | 292 | 5.0 | 6.0 | 0.00 | 0.00 | 0.00 | 100 | 1023.9 |
| 20260502104006 | 49 | 292 | 3.0 | 4.0 | 0.00 | 0.00 | 0.00 | 100 | 1023.9 |
| 20260502103503 | 49 | 292 | 5.0 | 6.0 | 0.00 | 0.00 | 0.00 | 100 | 1023.9 |
| 20260502103006 | 49 | 270 | 7.0 | 7.0 | 0.00 | 0.00 | 0.00 | 100 | 1023.9 |
| 20260502102503 | 49 | 270 | 6.0 | 7.0 | 0.00 | 0.00 | 0.00 | 100 | 1023.6 |
| 20260502102026 | 49 | 270 | 7.0 | 7.0 | 0.00 | 0.00 | 0.00 | 100 | 1023.6 |
| 20260502101503 | 49 | 292 | 7.0 | 8.0 | 0.00 | 0.00 | 0.00 | 100 | 1023.2 |
| 20260502101006 | 49 | 292 | 8.0 | 8.0 | 0.00 | 0.00 | 0.00 | 100 | 1023.2 |
| 20260502100503 | 49 | 270 | 7.0 | 8.0 | 0.00 | 0.00 | 0.00 | 100 | 1023.2 |
| 20260502091503 | 50 | 315 | 5.0 | 5.0 | 0.00 | 0.00 | 0.00 | 100 | 1022.9 |
| 20260502091007 | 50 | 315 | 6.0 | 7.0 | 0.00 | 0.00 | 0.00 | 100 | 1022.9 |
| 20260502090504 | 51 | 315 | 6.0 | 7.0 | 0.00 | 0.00 | 0.00 | 100 | 1022.9 |
| 20260502071508 | 53 | 270 | 5.0 | 5.0 | 0.00 | 0.00 | 0.00 | 100 | 1023.2 |
| 20260502071004 | 53 | 270 | 5.0 | 5.0 | 0.00 | 0.00 | 0.00 | 100 | 1023.2 |
| 20260502070507 | 53 | 270 | 5.0 | 6.0 | 0.00 | 0.00 | 0.00 | 100 | 1022.9 |
| 20260502070004 | 53 | 270 | 5.0 | 5.0 | 0.00 | 0.00 | 0.00 | 100 | 1022.9 |
| 20260502065507 | 53 | 270 | 5.0 | 5.0 | 0.00 | 0.00 | 0.00 | 100 | 1022.9 |
| 20260502065009 | 53 | 270 | 4.0 | 5.0 | 0.00 | 0.00 | 0.00 | 100 | 1022.9 |
| 20260502064505 | 54 | 270 | 4.0 | 5.0 | 0.00 | 0.00 | 0.00 | 100 | 1022.6 |
| 20260502064008 | 54 | 270 | 5.0 | 6.0 | 0.00 | 0.00 | 0.00 | 100 | 1022.6 |
| 20260502063508 | 54 | 270 | 5.0 | 6.0 | 0.00 | 0.00 | 0.00 | 100 | 1022.6 |
| 20260502063006 | 54 | 270 | 6.0 | 6.0 | 0.00 | 0.00 | 0.00 | 100 | 1022.6 |
| 20260502062502 | 54 | 270 | 6.0 | 6.0 | 0.00 | 0.00 | 0.00 | 100 | 1022.6 |
| 20260502062004 | 55 | 270 | 5.0 | 5.0 | 0.00 | 0.00 | 0.00 | 100 | 1022.6 |
| 20260502061507 | 55 | 270 | 5.0 | 5.0 | 0.00 | 0.00 | 0.00 | 100 | 1022.6 |
| 20260502061030 | 55 | 270 | 5.0 | 6.0 | 0.00 | 0.00 | 0.00 | 100 | 1022.6 |
| 20260502060506 | 55 | 270 | 4.0 | 5.0 | 0.00 | 0.00 | 0.00 | 100 | 1022.6 |
| 20260502060004 | 55 | 270 | 5.0 | 6.0 | 0.00 | 0.00 | 0.00 | 100 | 1022.6 |
| 20260502055506 | 56 | 247 | 5.0 | 6.0 | 0.00 | 0.00 | 0.00 | 100 | 1022.6 |
| 20260502055004 | 56 | 225 | 4.0 | 5.0 | 0.00 | 0.00 | 0.00 | 100 | 1022.6 |
| 20260502054507 | 56 | 225 | 4.0 | 5.0 | 0.00 | 0.00 | 0.00 | 100 | 1022.6 |
| 20260502054003 | 56 | 225 | 5.0 | 5.0 | 0.00 | 0.00 | 0.00 | 100 | 1022.6 |
| 20260502053506 | 56 | 225 | 4.0 | 5.0 | 0.00 | 0.00 | 0.00 | 100 | 1022.2 |
| 20260502053003 | 56 | 225 | 5.0 | 5.0 | 0.00 | 0.00 | 0.00 | 100 | 1022.2 |
| 20260502052506 | 56 | 225 | 5.0 | 6.0 | 0.00 | 0.00 | 0.00 | 100 | 1021.9 |
| 20260502052007 | 55 | 202 | 5.0 | 6.0 | 0.00 | 0.00 | 0.00 | 100 | 1021.9 |
| 20260502051503 | 55 | 202 | 6.0 | 7.0 | 0.00 | 0.00 | 0.00 | 100 | 1021.9 |
| 20260502051007 | 55 | 180 | 7.0 | 8.0 | 0.00 | 0.00 | 0.00 | 100 | 1021.9 |
| 20260502050504 | 55 | 180 | 5.0 | 6.0 | 0.00 | 0.00 | 0.00 | 100 | 1021.9 |
| 20260502050006 | 56 | 180 | 8.0 | 9.0 | 0.00 | 0.00 | 0.00 | 100 | 1021.9 |
| 20260502045503 | 56 | 180 | 6.0 | 7.0 | 0.00 | 0.00 | 0.00 | 100 | 1021.9 |
| 20260502045007 | 56 | 180 | 2.0 | 5.0 | 0.00 | 0.00 | 0.00 | 99 | 1021.9 |
| 20260502044504 | 57 | 270 | 5.0 | 6.0 | 0.00 | 0.00 | 0.00 | 99 | 1021.9 |
| 20260502044006 | 57 | 292 | 5.0 | 5.0 | 0.00 | 0.00 | 0.00 | 98 | 1021.9 |
| 20260502043503 | 57 | 292 | 5.0 | 6.0 | 0.00 | 0.00 | 0.00 | 96 | 1021.9 |
| 20260502043007 | 57 | 292 | 4.0 | 4.0 | 0.00 | 0.00 | 0.00 | 94 | 1021.9 |
| 20260502042504 | 58 | 292 | 6.0 | 6.0 | 0.00 | 0.00 | 0.00 | 93 | 1021.5 |
| 20260502042007 | 57 | 315 | 6.0 | 7.0 | 0.00 | 0.00 | 0.00 | 96 | 1021.5 |
| 20260502041503 | 57 | 315 | 3.0 | 4.0 | 0.00 | 0.00 | 0.00 | 94 | 1021.5 |
| 20260502041006 | 58 | 315 | 2.0 | 3.0 | 0.00 | 0.00 | 0.00 | 94 | 1021.5 |
| 20260502040535 | 58 | 315 | 4.0 | 5.0 | 0.00 | 0.00 | 0.00 | 94 | 1021.2 |
| 20260502040009 | 58 | 337 | 5.0 | 6.0 | 0.00 | 0.00 | 0.00 | 95 | 1021.2 |
| 20260502035505 | 59 | 337 | 5.0 | 6.0 | 0.00 | 0.00 | 0.00 | 94 | 1021.2 |
| 20260502035003 | 59 | 337 | 5.0 | 5.0 | 0.00 | 0.00 | 0.00 | 93 | 1021.2 |
| 20260502034505 | 59 | 337 | 4.0 | 4.0 | 0.00 | 0.00 | 0.00 | 94 | 1021.2 |
| 20260502034003 | 59 | 337 | 5.0 | 6.0 | 0.00 | 0.00 | 0.00 | 94 | 1021.2 |
| 20260502033506 | 59 | 292 | 4.0 | 5.0 | 0.00 | 0.00 | 0.00 | 93 | 1021.2 |
| 20260502033009 | 59 | 292 | 4.0 | 4.0 | 0.00 | 0.00 | 0.00 | 91 | 1021.2 |